Back to catalog

STARLINK-37993

AliveCommunicationsSSO
NORAD 69976·PAYLOAD·🇺🇸 United States

Launched Jul 11, 2026 from Vandenberg Space Force Base

Loading…

Next Passes (next 24 hours)

TLE

FreshSource: CelesTrak SupGP

Epoch: Sep 14, 2026, 23:21 UTC

1 69976C 26159B   26257.97340278 -.00703970  00000+0 -12819-1 0  2578
2 69976  97.2849  99.6960 0001694  94.8896  91.5753 15.49881141    14

Track STARLINK-37993 in real time with AllMySat

Download on the App Store